New York, NY

7:25 AM EST on November 24, 2017 (GMT -0500)
La Guardia

Weather History for KLGA - June, 2013

Change the Weather History Date:

Friday, June 28, 2013

  Actual Average Record
Temperature  
Mean Temperature 82 °F 76 °F  
Max Temperature 89 °F 84 °F 96 °F (2010)
Min Temperature 74 °F 67 °F 55 °F (1995)
Degree Days  
Heating Degree Days 0 0  
Month to date heating degree days 4 15  
Since 1 June heating degree days 4 15  
Since 1 July heating degree days 4439 4663  
Cooling Degree Days 17 11  
Month to date cooling degree days 252 210  
Year to date cooling degree days 340 276  
Since 1 June cooling degree days 252 210  
Growing Degree Days 31 (Base 50)    
Moisture  
Dew Point 67 °F    
Average Humidity 65    
Maximum Humidity 84    
Minimum Humidity 46    
Precipitation  
Precipitation T in 0.11 in 0.94 in (1983)
Month to date precipitation 8.16 3.70  
Year to date precipitation 22.57 21.39  
Snow  
Snow 0.00 in 0.00 in - ()
Month to date snowfall 0.0 0.0  
Since 1 July snowfall 22.2 26.9  
Snow Depth 0.00 in    
Sea Level Pressure  
Sea Level Pressure 29.52 in    
Wind  
Wind Speed 11 mph (SSW)    
Max Wind Speed 17 mph    
Max Gust Speed 22 mph    
Visibility 10 miles    
Events Rain    
T = Trace of Precipitation, MM = Missing Value Source: NWS Daily Summary

Daily Weather History Graph

Daily Weather History Graph

Search for Another Location

Airport or City:

Trip Planner

Search our weather history database for the weather conditions in past years. The results will help you decide how hot, cold, wet, or windy it might be!

Date:

Astronomy

Jun. 28, 2013 Rise Set
Actual Time 5:26 AM EDT 8:30 PM EDT
Civil Twilight 4:53 AM EDT 9:04 PM EDT
Nautical Twilight 4:10 AM EDT 9:46 PM EDT
Astronomical Twilight 3:20 AM EDT 10:36 PM EDT
Moon 11:56 PM EDT (6/28) 11:33 AM EDT (6/28)
Length of Visible Light 16h 11m
Length of Day
15h 04m
Waning Gibbous, 66% of the Moon is Illuminated
Jun 28
Waning Gibbous
Jun 30
Last Quarter
Jul 8
New
Jul 15
First Quarter
Jul 22
Full

Hourly Weather History & Observations

Time (EDT) Temp. Heat Index Dew Point Humidity Pressure Visibility Wind Dir Wind Speed Gust Speed Precip Events Conditions
12:46 AM 75.2 °F - 69.8 °F 83% 29.56 in 10.0 mi SSW 11.5 mph - 0.00 in   Mostly Cloudy
12:51 AM 75.9 °F - 69.1 °F 79% 29.57 in 10.0 mi SSW 12.7 mph - 0.00 in   Mostly Cloudy
1:34 AM 75.2 °F - 69.8 °F 83% 29.55 in 10.0 mi South 15.0 mph - N/A   Mostly Cloudy
1:51 AM 75.9 °F - 69.1 °F 79% 29.55 in 10.0 mi South 9.2 mph 19.6 mph N/A   Overcast
2:45 AM 75.2 °F - 69.8 °F 83% 29.55 in 10.0 mi SSE 12.7 mph 18.4 mph N/A   Overcast
2:51 AM 75.0 °F - 69.1 °F 82% 29.55 in 10.0 mi South 12.7 mph 18.4 mph N/A   Overcast
3:28 AM 73.4 °F - 68.0 °F 83% 29.54 in 10.0 mi South 10.4 mph - N/A   Overcast
3:51 AM 75.0 °F - 68.0 °F 79% 29.53 in 10.0 mi SSW 11.5 mph - N/A   Mostly Cloudy
4:51 AM 75.0 °F - 68.0 °F 79% 29.52 in 10.0 mi SSW 11.5 mph - N/A   Mostly Cloudy
5:51 AM 73.9 °F - 68.0 °F 82% 29.53 in 10.0 mi SW 13.8 mph - N/A   Mostly Cloudy
6:19 AM 73.4 °F - 68.0 °F 83% 29.53 in 10.0 mi SW 10.4 mph - N/A   Scattered Clouds
6:47 AM 73.4 °F - 68.0 °F 83% 29.54 in 10.0 mi SW 9.2 mph - N/A   Mostly Cloudy
6:51 AM 73.9 °F - 68.0 °F 82% 29.55 in 10.0 mi SW 10.4 mph - N/A   Mostly Cloudy
7:51 AM 75.0 °F - 68.0 °F 79% 29.54 in 10.0 mi SW 9.2 mph - N/A   Mostly Cloudy
8:41 AM 75.2 °F - 68.0 °F 78% 29.53 in 10.0 mi WSW 11.5 mph - N/A   Mostly Cloudy
8:51 AM 75.9 °F - 68.0 °F 76% 29.53 in 10.0 mi WSW 13.8 mph - N/A   Mostly Cloudy
9:51 AM 79.0 °F - 66.9 °F 66% 29.51 in 10.0 mi WSW 9.2 mph - N/A   Mostly Cloudy
10:51 AM 80.1 °F 82.1 °F 66.0 °F 62% 29.51 in 10.0 mi SW 11.5 mph 18.4 mph N/A   Overcast
11:51 AM 82.9 °F 85.0 °F 66.0 °F 56% 29.52 in 10.0 mi SW 13.8 mph 19.6 mph N/A   Mostly Cloudy
12:51 PM 84.0 °F 85.8 °F 64.9 °F 53% 29.52 in 10.0 mi SSW 12.7 mph - N/A   Mostly Cloudy
1:51 PM 84.9 °F 86.6 °F 64.9 °F 51% 29.51 in 10.0 mi SW 10.4 mph 19.6 mph N/A   Mostly Cloudy
2:51 PM 87.1 °F 88.3 °F 64.0 °F 46% 29.50 in 10.0 mi WSW 9.2 mph - N/A   Mostly Cloudy
3:51 PM 87.1 °F 88.9 °F 64.9 °F 48% 29.48 in 10.0 mi SSW 11.5 mph - N/A   Mostly Cloudy
4:51 PM 87.1 °F 88.3 °F 64.0 °F 46% 29.48 in 10.0 mi SW 8.1 mph 21.9 mph N/A   Mostly Cloudy
5:51 PM 82.9 °F 85.4 °F 66.9 °F 58% 29.48 in 10.0 mi SSE 13.8 mph - N/A   Mostly Cloudy
6:51 PM 82.0 °F 84.5 °F 66.9 °F 60% 29.50 in 10.0 mi South 9.2 mph - N/A   Mostly Cloudy
7:51 PM 79.0 °F - 69.1 °F 72% 29.48 in 10.0 mi South 11.5 mph - 0.00 in Rain Light Rain
8:51 PM 79.0 °F - 68.0 °F 69% 29.51 in 10.0 mi SSW 11.5 mph - 0.00 in   Mostly Cloudy
9:51 PM 79.0 °F - 63.0 °F 58% 29.51 in 10.0 mi WSW 12.7 mph - N/A   Overcast
10:51 PM 77.0 °F - 63.0 °F 62% 29.52 in 10.0 mi SW 10.4 mph - N/A   Scattered Clouds
11:51 PM 78.1 °F - 61.0 °F 56% 29.51 in 10.0 mi SW 5.8 mph - N/A   Mostly Cloudy